Location: Czekanka
(50.4925°N, 19.2643°E)
Time: 12:40:26
(UTC+00:00)

Meteor 1-28 Rocket - Pass Details

Date: 15 June 2024
Orbit: 474 x 487 km, 97.5° (Epoch: 15 July)

Event Time Altitude Azimuth Distance (km) Brightness Sun altitude
Exits shadow 01:43:47 - 186° (S) 2,186 5.9 -6.1°
Reaches altitude 10° 01:45:08 10° 193° (SSW) 1,640 5.2 -6.0°
Maximum altitude 01:48:26 37° 262° (W) 756 3.7 -5.7°
Drops below altitude 10° 01:51:46 10° 332° (NNW) 1,658 6.0 -5.3°
Sets 01:53:57 0° 340° (NNW) 2,544 7.1 -5.1°
